Regional Weather Roundup
Issued by NWS

Home | Current Version | Previous Version | Graphics & Text | Print | Product List | Glossary On
Versions: 1 2 3 4 5 6 7 8 9 10 11 12 13 14 15 16 17 18 19 20 21 22 23 24 25 26 27 28 29 30 31 32 33 34 35 36 37 38 39 40 41 42 43 44 45 46 47 48 49 50
000
ASUS43 KLMK 201110
RWRKY
KENTUCKY REGIONAL WEATHER ROUNDUP
NATIONAL WEATHER SERVICE LOUISVILLE KY
700 AM EDT FRI APR 20 2018

NOTE "FAIR" INDICATES FEW OR NO CLOUDS BELOW 12,000 FEET
WITH NO SIGNIFICANT WEATHER AND/OR OBSTRUCTIONS TO VISIBILITY.

KYZ001>023-026-027-061>063-070>075-201200-
WESTERN AND SOUTH CENTRAL KENTUCKY

CITY           SKY/WX    TMP DP  RH WIND       PRES   REMARKS
PADUCAH        FAIR      36  29  75 CALM      30.40S
HENDERSON      FAIR      39  22  50 NE13      30.43R WCI  31
OWENSBORO      FAIR      39  20  46 N10       30.42R WCI  32
HOPKINSVILLE   FAIR      35  30  83 N6        30.38R WCI  30
BOWLING GREEN  FAIR      33  29  85 CALM      30.40R
GLASGOW        FAIR      32  28  86 E3        30.39R
$$

KYZ024-025-028>034-038-045-046-053-201200-
NORTH CENTRAL KENTUCKY

CITY           SKY/WX    TMP DP  RH WIND       PRES   REMARKS
LOUISVILLE/SDF FAIR      37  23  56 N7        30.43R WCI  32
LOUISVILLE/LOU FAIR      36  25  64 N3        30.43R
FORT KNOX      FAIR      36  23  58 N8        30.41S WCI  30
$$

KYZ035>037-039>044-047>052-055>060-089>105-201200-
NORTHEAST KENTUCKY

CITY           SKY/WX    TMP DP  RH WIND       PRES   REMARKS
LEXINGTON      FAIR      35  26  69 N7        30.40R WCI  29
COVINGTON      FAIR      33  27  78 N9        30.42R WCI  25
FRANKFORT      FAIR      35  25  66 N3        30.40R
$$

KYZ054-064>069-076>088-106>120-201200-
SOUTHEAST KENTUCKY

CITY           SKY/WX    TMP DP  RH WIND       PRES   REMARKS
JACKSON        FAIR      36  29  75 NE5       30.37R WCI  32
LONDON         FAIR      30  29  96 MISG      30.38R
SOMERSET       FAIR      30  30 100 CALM      30.40S FOG
MIDDLESBORO    FAIR      30  30 100 CALM      30.40R
MONTICELLO     FAIR      24  22  91 VRB5      30.40R WCI  18
$$




USA.gov is the U.S. government's official web portal to all federal, state and local government web resources and services.